Regional Weather Roundup
Issued by NWS Northern Indiana

Home | Current Version | Previous Version | Text Only | Print | Product List | Glossary On
Versions: 1 2 3 4 5 6 7 8 9 10 11 12 13 14 15 16 17 18 19 20 21 22 23 24 25 26 27 28 29 30 31 32 33 34 35 36 37 38 39 40 41 42 43 44 45 46 47 48 49 50
000
ASUS43 KIWX 061710
RWRIWX

KIWX WEATHER ROUNDUP
NATIONAL WEATHER SERVICE NORTHERN INDIANA
100 PM EDT FRI MAY 06 2016

NOTE: "FAIR" INDICATES FEW OR NO CLOUDS BELOW 12,000 FEET WITH NO
SIGNIFICANT WEATHER AND/OR OBSTRUCTIONS TO VISIBILITY.

* THESE STATIONS ARE NOT UNDER NWS QUALITY CONTROL. THEY ALSO MAY NOT
  REPORT WEATHER SUCH AS PRECIPITATION OR FOG.

INZ001>027-061800-
NORTHERN INDIANA

CITY           SKY/WX    TMP DP  RH WIND       PRES   REMARKS
GARY*          MOSUNNY   72  48  43 W9        29.98F
VALPARAISO       N/A     69  39  33 W7        29.98F
MICHIGAN CITY* SUNNY     68  39  34 NW8       29.98F
LAPORTE*       SUNNY     70  40  33 NW6       29.99F
KNOX*          MOSUNNY   66  30  26 W6        29.98F
SOUTH BEND     SUNNY     67  41  38 NW8       29.98F
ELKHART*       SUNNY     66  48  52 W6        29.98F
GOSHEN         SUNNY     65  46  50 SW7       29.98F
MONTICELLO*    SUNNY     68  35  29 NW5       29.99F
LOGANSPORT*    SUNNY     64  41  42 W6        30.01F
ROCHESTER*     SUNNY     68  43  40 N3        30.00F
WARSAW*        SUNNY     64  41  42 N5        29.99F
ANGOLA*          N/A     66  39  37 SW8       29.97F
FORT WAYNE     MOSUNNY   66  43  43 W9        29.99F
HUNTINGTON*    SUNNY     64  41  42 W5        29.99F
PERU/GRISSOM   SUNNY     65  43  44 N7        29.99F
MARION*        SUNNY     62  43  50 W7        30.01F

$$
INZ028>050-061800-
CENTRAL INDIANA

CITY           SKY/WX    TMP DP  RH WIND       PRES   REMARKS
LAFAYETTE      SUNNY     67  42  40 W10       30.00F
KOKOMO*        SUNNY     64  45  48 NW12      30.00F
MUNCIE*        SUNNY     65  43  44 NW6       30.00F
INDIANAPOLIS   MOSUNNY   66  41  40 N9        30.01F

$$
MIZ043>046-050>051-056>058-064>065-071>073-077>080-061800-
SOUTHWEST LOWER MICHIGAN

CITY           SKY/WX    TMP DP  RH WIND       PRES   REMARKS
BATTLE CREEK   SUNNY     66  36  32 NW5       29.97F
BENTON HARBOR  SUNNY     65  42  43 W6        29.98F
COLDWATER*     SUNNY     65  39  39 CALM      29.97F
HILLSDALE*     SUNNY     64  35  34 W3        29.96F
HOLLAND        SUNNY     66  40  38 W8        29.96F
GRAND RAPIDS   MOSUNNY   69  40  34 W8        29.96F
KALAMAZOO      SUNNY     68  38  33 CALM      29.97F
STURGIS*       SUNNY     65  43  43 CALM      29.96F
THREE RIVERS*  FAIR      68  38  33 W5        29.97F

$$
OHZ001>008-015>018-024>025-061800-
NORTHWEST OHIO

CITY           SKY/WX    TMP DP  RH WIND       PRES   REMARKS
WAUSEON*         N/A     66 N/A N/A N7        29.96F
DEFIANCE       SUNNY     66  42  41 W7        29.97F
FINDLAY        SUNNY     67  39  35 VRB7      29.95F
TOLEDO EXPRESS SUNNY     66  37  34 N8        29.96F
TOLEDO METCALF SUNNY     67  39  35 VRB6      29.96F
LIMA           SUNNY     63  43  48 W6        29.97F

$$
AND FOR LAKE MICHIGAN COASTAL AND OPEN LAKE BUOY OBSERVATIONS

STATION/POSITION TEMP    WIND        PRES    VSBY  WAVE
                 AIR SEA DIR/SP/G                  HT/PER
                 (F)     (DEG/KT/KT) (MB)    (MI)  (FT/S)
CALUMET HARBOR    69     250/  5/ 12 1014.8F
MICHIGAN CITY     59     220/ 10/ 10   N/A
BURNS HARBOR      61     290/  2/  2 1016.3F
SAINT JOSEPH      53     180/  8/  9 1015.2F
SOUTH LAKE BUOY   44 41  160/ 10/ 12 1014.1F         0
4 MI NW BRIDGMAN  52 33                N/A           1

$$
&&



USA.gov is the U.S. government's official web portal to all federal, state and local government web resources and services.